| time (UTC) | temp F | wind direction | speed knots | gust knots | rain 1hr in | rain 24hr in | rain mn in | humidity % | barometer mb |
| 20260902224037 | 83 | 13 | 0.0 | 0.0 | 0.00 | 0.00 | 0.00 | 28 | 1013.5 |
| 20260902223536 | 84 | 351 | 0.0 | 0.0 | 0.00 | 0.00 | 0.00 | 28 | 1013.5 |
| 20260902223037 | 84 | 350 | 0.0 | 0.0 | 0.00 | 0.00 | 0.00 | 28 | 1013.5 |
| 20260902222537 | 84 | 20 | 0.0 | 0.0 | 0.00 | 0.00 | 0.00 | 29 | 1013.5 |
| 20260902222039 | 84 | 20 | 0.0 | 0.0 | 0.00 | 0.00 | 0.00 | 28 | 1013.5 |
| 20260902221537 | 84 | 19 | 0.0 | 0.0 | 0.00 | 0.00 | 0.00 | 28 | 1013.5 |
| 20260902221036 | 84 | 72 | 0.0 | 0.0 | 0.00 | 0.00 | 0.00 | 27 | 1013.5 |
| 20260902220536 | 84 | 68 | 0.0 | 0.0 | 0.00 | 0.00 | 0.00 | 28 | 1013.5 |
| 20260902220036 | 84 | 75 | 0.9 | 0.9 | 0.00 | 0.00 | 0.00 | 28 | 1013.5 |
| 20260902215537 | 84 | 71 | 0.0 | 0.0 | 0.00 | 0.00 | 0.00 | 28 | 1013.5 |
| 20260902215037 | 85 | 68 | 0.0 | 0.0 | 0.00 | 0.00 | 0.00 | 28 | 1013.5 |
| 20260902214536 | 85 | 5 | 1.7 | 1.7 | 0.00 | 0.00 | 0.00 | 27 | 1013.5 |
| 20260902214037 | 85 | 64 | 0.0 | 0.9 | 0.00 | 0.00 | 0.00 | 27 | 1013.5 |
| 20260902213536 | 85 | 85 | 2.6 | 2.6 | 0.00 | 0.00 | 0.00 | 27 | 1013.5 |
| 20260902213036 | 85 | 72 | 1.7 | 1.7 | 0.00 | 0.00 | 0.00 | 28 | 1013.5 |
| 20260902212537 | 85 | 78 | 0.0 | 0.0 | 0.00 | 0.00 | 0.00 | 28 | 1013.5 |
| 20260902212037 | 85 | 86 | 0.0 | 0.9 | 0.00 | 0.00 | 0.00 | 28 | 1013.9 |
| 20260902211536 | 85 | 87 | 0.0 | 0.0 | 0.00 | 0.00 | 0.00 | 28 | 1013.5 |
| 20260902211037 | 85 | 65 | 0.0 | 0.0 | 0.00 | 0.00 | 0.00 | 32 | 1013.9 |
| 20260902210536 | 84 | 173 | 0.0 | 0.0 | 0.00 | 0.00 | 0.00 | 36 | 1013.5 |
| 20260902210036 | 84 | 173 | 0.0 | 0.0 | 0.00 | 0.00 | 0.00 | 37 | 1013.9 |
| 20260902205537 | 84 | 173 | 0.0 | 0.0 | 0.00 | 0.00 | 0.00 | 36 | 1013.5 |
| 20260902205036 | 85 | 173 | 0.0 | 0.0 | 0.00 | 0.00 | 0.00 | 36 | 1013.5 |
| 20260902204537 | 85 | 173 | 0.0 | 0.0 | 0.00 | 0.00 | 0.00 | 36 | 1013.9 |
| 20260902204036 | 85 | 167 | 0.9 | 0.9 | 0.00 | 0.00 | 0.00 | 35 | 1013.9 |
| 20260902203536 | 86 | 119 | 0.0 | 0.0 | 0.00 | 0.00 | 0.00 | 36 | 1013.5 |
| 20260902203036 | 86 | 119 | 0.0 | 0.0 | 0.00 | 0.00 | 0.00 | 34 | 1013.5 |
| 20260902202538 | 86 | 119 | 0.0 | 0.0 | 0.00 | 0.00 | 0.00 | 34 | 1013.9 |
| 20260902202037 | 86 | 119 | 0.0 | 0.0 | 0.00 | 0.00 | 0.00 | 34 | 1013.5 |
| 20260902201536 | 86 | 119 | 0.0 | 0.0 | 0.00 | 0.00 | 0.00 | 35 | 1013.5 |
| 20260902201037 | 86 | 119 | 0.0 | 0.0 | 0.00 | 0.00 | 0.00 | 34 | 1013.5 |
| 20260902200536 | 87 | 119 | 0.0 | 0.0 | 0.00 | 0.00 | 0.00 | 35 | 1013.5 |
| 20260902200038 | 87 | 19 | 0.0 | 0.0 | 0.00 | 0.00 | 0.00 | 34 | 1013.9 |
| 20260902195536 | 87 | 19 | 0.0 | 0.0 | 0.00 | 0.00 | 0.00 | 33 | 1013.9 |
| 20260902195038 | 87 | 19 | 0.0 | 0.0 | 0.00 | 0.00 | 0.00 | 33 | 1013.9 |
| 20260902194536 | 87 | 17 | 0.0 | 0.0 | 0.00 | 0.00 | 0.00 | 33 | 1013.9 |
| 20260902194036 | 86 | 16 | 0.0 | 0.0 | 0.00 | 0.00 | 0.00 | 35 | 1013.9 |
| 20260902193536 | 87 | 16 | 0.0 | 0.0 | 0.00 | 0.00 | 0.00 | 37 | 1013.9 |
| 20260902193037 | 87 | 16 | 0.0 | 0.0 | 0.00 | 0.00 | 0.00 | 36 | 1013.9 |
| 20260902192537 | 87 | 14 | 0.0 | 0.0 | 0.00 | 0.00 | 0.00 | 35 | 1013.9 |
| 20260902192036 | 87 | 26 | 0.0 | 0.0 | 0.00 | 0.00 | 0.00 | 36 | 1013.9 |
| 20260902191537 | 87 | 99 | 0.0 | 0.0 | 0.00 | 0.00 | 0.00 | 36 | 1013.9 |
| 20260902191037 | 87 | 99 | 0.0 | 0.0 | 0.00 | 0.00 | 0.00 | 36 | 1013.5 |
| 20260902190536 | 87 | 99 | 0.0 | 0.0 | 0.00 | 0.00 | 0.00 | 36 | 1013.9 |
| 20260902190039 | 87 | 99 | 0.0 | 0.0 | 0.00 | 0.00 | 0.00 | 36 | 1013.9 |
| 20260902185538 | 88 | 100 | 0.0 | 0.0 | 0.00 | 0.00 | 0.00 | 36 | 1013.9 |
| 20260902185036 | 88 | 121 | 0.0 | 0.0 | 0.00 | 0.00 | 0.00 | 35 | 1013.9 |
| 20260902184536 | 88 | 273 | 0.0 | 0.0 | 0.00 | 0.00 | 0.00 | 35 | 1013.5 |
| 20260902184037 | 88 | 283 | 0.9 | 1.7 | 0.00 | 0.00 | 0.00 | 35 | 1013.9 |
| 20260902183536 | 88 | 10 | 0.9 | 0.9 | 0.00 | 0.00 | 0.00 | 35 | 1013.5 |
| 20260902183036 | 89 | 1 | 2.6 | 2.6 | 0.00 | 0.00 | 0.00 | 35 | 1013.5 |
| 20260902182538 | 89 | 323 | 2.6 | 2.6 | 0.00 | 0.00 | 0.00 | 35 | 1013.5 |
| 20260902182036 | 88 | 294 | 2.6 | 4.3 | 0.00 | 0.00 | 0.00 | 35 | 1013.5 |
| 20260902181536 | 89 | 234 | 0.0 | 0.0 | 0.00 | 0.00 | 0.00 | 35 | 1013.5 |
| 20260902181037 | 89 | 228 | 0.9 | 1.7 | 0.00 | 0.00 | 0.00 | 35 | 1013.5 |
| 20260902180540 | 89 | 249 | 0.9 | 0.9 | 0.00 | 0.00 | 0.00 | 35 | 1013.2 |
| 20260902180036 | 89 | 265 | 0.9 | 0.9 | 0.00 | 0.00 | 0.00 | 35 | 1013.5 |
| 20260902175536 | 89 | 298 | 3.5 | 5.2 | 0.00 | 0.00 | 0.00 | 35 | 1013.2 |
| 20260902175037 | 89 | 279 | 3.5 | 4.3 | 0.00 | 0.00 | 0.00 | 35 | 1013.2 |
| 20260902174536 | 89 | 288 | 4.3 | 6.1 | 0.00 | 0.00 | 0.00 | 35 | 1013.2 |
| 20260902174037 | 89 | 300 | 0.9 | 0.9 | 0.00 | 0.00 | 0.00 | 35 | 1012.9 |
| 20260902173537 | 89 | 291 | 2.6 | 2.6 | 0.00 | 0.00 | 0.00 | 35 | 1012.9 |
| 20260902173037 | 90 | 313 | 3.5 | 6.1 | 0.00 | 0.00 | 0.00 | 35 | 1013.2 |
| 20260902172538 | 90 | 210 | 2.6 | 5.2 | 0.00 | 0.00 | 0.00 | 35 | 1012.9 |
| 20260902172037 | 90 | 259 | 2.6 | 2.6 | 0.00 | 0.00 | 0.00 | 34 | 1012.9 |
| 20260902171538 | 90 | 295 | 2.6 | 4.3 | 0.00 | 0.00 | 0.00 | 34 | 1012.9 |
| 20260902171036 | 90 | 314 | 3.5 | 4.3 | 0.00 | 0.00 | 0.00 | 33 | 1012.9 |
| 20260902170537 | 90 | 306 | 2.6 | 2.6 | 0.00 | 0.00 | 0.00 | 33 | 1012.5 |
| 20260902170037 | 91 | 337 | 2.6 | 2.6 | 0.00 | 0.00 | 0.00 | 31 | 1012.9 |
| 20260902165536 | 91 | 328 | 2.6 | 2.6 | 0.00 | 0.00 | 0.00 | 30 | 1012.9 |
| 20260902165036 | 92 | 297 | 2.6 | 4.3 | 0.00 | 0.00 | 0.00 | 28 | 1012.5 |
| 20260902164537 | 92 | 299 | 0.9 | 0.9 | 0.00 | 0.00 | 0.00 | 21 | 1012.5 |
| 20260902164037 | 92 | 317 | 0.9 | 1.7 | 0.00 | 0.00 | 0.00 | 21 | 1012.5 |
| 20260902163536 | 92 | 341 | 0.0 | 0.0 | 0.00 | 0.00 | 0.00 | 21 | 1012.5 |
| 20260902163037 | 92 | 28 | 0.0 | 0.0 | 0.00 | 0.00 | 0.00 | 21 | 1012.5 |
| 20260902162537 | 92 | 29 | 0.0 | 0.0 | 0.00 | 0.00 | 0.00 | 21 | 1012.2 |
| 20260902162037 | 92 | 29 | 0.0 | 0.0 | 0.00 | 0.00 | 0.00 | 21 | 1012.2 |
| 20260902161536 | 93 | 29 | 0.0 | 0.0 | 0.00 | 0.00 | 0.00 | 21 | 1012.2 |
| 20260902161038 | 93 | 29 | 0.0 | 0.0 | 0.00 | 0.00 | 0.00 | 20 | 1012.2 |
| 20260902160538 | 93 | 24 | 0.0 | 0.0 | 0.00 | 0.00 | 0.00 | 20 | 1012.2 |
| 20260902160037 | 93 | 30 | 0.0 | 0.0 | 0.00 | 0.00 | 0.00 | 20 | 1012.2 |
| 20260902155536 | 93 | 354 | 0.9 | 0.9 | 0.00 | 0.00 | 0.00 | 19 | 1012.2 |
| 20260902155037 | 94 | 84 | 0.0 | 0.0 | 0.00 | 0.00 | 0.00 | 19 | 1012.2 |
| 20260902154536 | 94 | 27 | 2.6 | 2.6 | 0.00 | 0.00 | 0.00 | 19 | 1012.2 |
| 20260902154037 | 94 | 8 | 0.0 | 0.0 | 0.00 | 0.00 | 0.00 | 19 | 1011.9 |
| 20260902153536 | 94 | 10 | 0.9 | 0.9 | 0.00 | 0.00 | 0.00 | 19 | 1012.2 |
| 20260902153036 | 94 | 45 | 2.6 | 2.6 | 0.00 | 0.00 | 0.00 | 19 | 1012.5 |
| 20260902152537 | 94 | 101 | 0.9 | 1.7 | 0.00 | 0.00 | 0.00 | 19 | 1012.5 |
| 20260902152037 | 95 | 31 | 3.5 | 5.2 | 0.00 | 0.00 | 0.00 | 19 | 1012.2 |
| 20260902151537 | 95 | 82 | 1.7 | 1.7 | 0.00 | 0.00 | 0.00 | 19 | 1012.5 |
| 20260902151037 | 95 | 24 | 0.9 | 1.7 | 0.00 | 0.00 | 0.00 | 19 | 1012.2 |
| 20260902150537 | 95 | 356 | 0.0 | 0.9 | 0.00 | 0.00 | 0.00 | 19 | 1012.2 |
| 20260902150036 | 95 | 72 | 1.7 | 2.6 | 0.00 | 0.00 | 0.00 | 19 | 1012.5 |
| 20260902145537 | 95 | 67 | 3.5 | 4.3 | 0.00 | 0.00 | 0.00 | 19 | 1012.5 |
| 20260902145037 | 95 | 86 | 2.6 | 4.3 | 0.00 | 0.00 | 0.00 | 19 | 1012.5 |
| 20260902144538 | 95 | 76 | 3.5 | 4.3 | 0.00 | 0.00 | 0.00 | 19 | 1012.5 |
| 20260902144038 | 96 | 68 | 5.2 | 6.1 | 0.00 | 0.00 | 0.00 | 19 | 1012.5 |
| 20260902143537 | 96 | 105 | 1.7 | 1.7 | 0.00 | 0.00 | 0.00 | 18 | 1012.5 |
| 20260902143037 | 96 | 116 | 1.7 | 1.7 | 0.00 | 0.00 | 0.00 | 18 | 1012.5 |
| 20260902142537 | 96 | 76 | 1.7 | 2.6 | 0.00 | 0.00 | 0.00 | 18 | 1012.9 |
| 20260902142037 | 96 | 121 | 2.6 | 1.7 | 0.00 | 0.00 | 0.00 | 18 | 1012.5 |
| 20260902141537 | 96 | 59 | 1.7 | 1.7 | 0.00 | 0.00 | 0.00 | 19 | 1012.5 |
| 20260902141036 | 96 | 57 | 2.6 | 2.6 | 0.00 | 0.00 | 0.00 | 18 | 1012.9 |
| 20260902140537 | 96 | 127 | 3.5 | 5.2 | 0.00 | 0.00 | 0.00 | 18 | 1012.5 |
| 20260902140038 | 96 | 50 | 2.6 | 4.3 | 0.00 | 0.00 | 0.00 | 18 | 1012.9 |
| 20260902135537 | 96 | 74 | 1.7 | 1.7 | 0.00 | 0.00 | 0.00 | 18 | 1012.5 |
| 20260902135038 | 97 | 127 | 1.7 | 1.7 | 0.00 | 0.00 | 0.00 | 18 | 1012.9 |
| 20260902134536 | 96 | 144 | 0.9 | 1.7 | 0.00 | 0.00 | 0.00 | 18 | 1012.5 |
| 20260902134037 | 96 | 82 | 2.6 | 2.6 | 0.00 | 0.00 | 0.00 | 18 | 1012.9 |
| 20260902133537 | 96 | 127 | 5.2 | 6.1 | 0.00 | 0.00 | 0.00 | 18 | 1012.5 |
| 20260902133037 | 96 | 67 | 3.5 | 4.3 | 0.00 | 0.00 | 0.00 | 18 | 1012.5 |
| 20260902132536 | 96 | 33 | 0.9 | 0.9 | 0.00 | 0.00 | 0.00 | 18 | 1012.9 |
| 20260902132036 | 96 | 46 | 3.5 | 4.3 | 0.00 | 0.00 | 0.00 | 19 | 1012.9 |
| 20260902131536 | 96 | 123 | 1.7 | 1.7 | 0.00 | 0.00 | 0.00 | 18 | 1012.9 |
| 20260902131037 | 96 | 97 | 5.2 | 5.2 | 0.00 | 0.00 | 0.00 | 18 | 1012.9 |
| 20260902130538 | 96 | 93 | 3.5 | 5.2 | 0.00 | 0.00 | 0.00 | 18 | 1012.9 |
| 20260902130037 | 96 | 123 | 5.2 | 6.1 | 0.00 | 0.00 | 0.00 | 19 | 1012.9 |
| 20260902125537 | 96 | 99 | 2.6 | 2.6 | 0.00 | 0.00 | 0.00 | 19 | 1012.9 |
| 20260902125036 | 97 | 352 | 1.7 | 1.7 | 0.00 | 0.00 | 0.00 | 18 | 1012.9 |
| 20260902124536 | 96 | 87 | 0.9 | 0.0 | 0.00 | 0.00 | 0.00 | 18 | 1013.2 |
| 20260902124037 | 96 | 108 | 4.3 | 4.3 | 0.00 | 0.00 | 0.00 | 18 | 1013.2 |
| 20260902123536 | 96 | 100 | 2.6 | 2.6 | 0.00 | 0.00 | 0.00 | 18 | 1013.2 |
| 20260902123038 | 97 | 60 | 1.7 | 1.7 | 0.00 | 0.00 | 0.00 | 18 | 1013.2 |
| 20260902122536 | 97 | 87 | 1.7 | 1.7 | 0.00 | 0.00 | 0.00 | 18 | 1013.2 |
| 20260902122036 | 97 | 135 | 0.9 | 1.7 | 0.00 | 0.00 | 0.00 | 18 | 1013.2 |
| 20260902121537 | 97 | 108 | 0.0 | 0.0 | 0.00 | 0.00 | 0.00 | 18 | 1013.2 |
| 20260902121037 | 95 | 101 | 2.6 | 4.3 | 0.00 | 0.00 | 0.00 | 19 | 1012.9 |
| 20260902120536 | 95 | 34 | 3.5 | 7.0 | 0.00 | 0.00 | 0.00 | 20 | 1013.2 |
| 20260902120037 | 97 | 57 | 3.5 | 7.0 | 0.00 | 0.00 | 0.00 | 19 | 1013.2 |
| 20260902115538 | 96 | 66 | 3.5 | 5.2 | 0.00 | 0.00 | 0.00 | 20 | 1013.5 |
| 20260902115038 | 98 | 105 | 2.6 | 5.2 | 0.00 | 0.00 | 0.00 | 19 | 1013.5 |
| 20260902114536 | 97 | 226 | 0.0 | 0.0 | 0.00 | 0.00 | 0.00 | 19 | 1013.5 |
| 20260902114038 | 96 | 276 | 0.9 | 0.9 | 0.00 | 0.00 | 0.00 | 20 | 1013.5 |
| 20260902113537 | 95 | 335 | 0.9 | 1.7 | 0.00 | 0.00 | 0.00 | 20 | 1013.5 |
| 20260902113036 | 95 | 119 | 4.3 | 5.2 | 0.00 | 0.00 | 0.00 | 20 | 1013.5 |
| 20260902112537 | 95 | 115 | 2.6 | 4.3 | 0.00 | 0.00 | 0.00 | 20 | 1013.9 |
| 20260902112037 | 95 | 27 | 1.7 | 2.6 | 0.00 | 0.00 | 0.00 | 21 | 1013.9 |
| 20260902111538 | 96 | 76 | 6.1 | 6.1 | 0.00 | 0.00 | 0.00 | 20 | 1013.9 |
| 20260902111036 | 96 | 91 | 5.2 | 7.0 | 0.00 | 0.00 | 0.00 | 20 | 1013.9 |
| 20260902110536 | 96 | 62 | 0.9 | 1.7 | 0.00 | 0.00 | 0.00 | 21 | 1013.9 |
| 20260902110037 | 95 | 2 | 0.9 | 0.9 | 0.00 | 0.00 | 0.00 | 20 | 1013.9 |
| 20260902105537 | 95 | 62 | 2.6 | 2.6 | 0.00 | 0.00 | 0.00 | 21 | 1013.9 |
| 20260902105036 | 95 | 134 | 4.3 | 5.2 | 0.00 | 0.00 | 0.00 | 20 | 1014.2 |
| 20260902104538 | 95 | 143 | 2.6 | 2.6 | 0.00 | 0.00 | 0.00 | 20 | 1013.9 |
| 20260902104036 | 94 | 268 | 1.7 | 1.7 | 0.00 | 0.00 | 0.00 | 21 | 1014.2 |
| 20260902103536 | 94 | 98 | 3.5 | 4.3 | 0.00 | 0.00 | 0.00 | 21 | 1014.2 |
| 20260902103037 | 94 | 77 | 2.6 | 2.6 | 0.00 | 0.00 | 0.00 | 22 | 1014.2 |
| 20260902102536 | 95 | 121 | 2.6 | 2.6 | 0.00 | 0.00 | 0.00 | 21 | 1014.6 |
| 20260902102036 | 95 | 140 | 2.6 | 2.6 | 0.00 | 0.00 | 0.00 | 21 | 1014.2 |
| 20260902101536 | 95 | 357 | 2.6 | 2.6 | 0.00 | 0.00 | 0.00 | 21 | 1014.2 |
| 20260902101036 | 95 | 108 | 2.6 | 2.6 | 0.00 | 0.00 | 0.00 | 22 | 1014.2 |
| 20260902100537 | 93 | 118 | 0.0 | 0.0 | 0.00 | 0.00 | 0.00 | 22 | 1014.6 |
| 20260902100036 | 92 | 80 | 1.7 | 1.7 | 0.00 | 0.00 | 0.00 | 22 | 1014.2 |
| 20260902095538 | 94 | 109 | 6.1 | 7.8 | 0.00 | 0.00 | 0.00 | 22 | 1014.6 |
| 20260902095036 | 94 | 212 | 0.0 | 0.0 | 0.00 | 0.00 | 0.00 | 23 | 1014.6 |
| 20260902094536 | 93 | 360 | 0.9 | 0.9 | 0.00 | 0.00 | 0.00 | 23 | 1014.6 |
| 20260902094037 | 93 | 102 | 2.6 | 5.2 | 0.00 | 0.00 | 0.00 | 23 | 1014.6 |
| 20260902093536 | 93 | 78 | 0.9 | 1.7 | 0.00 | 0.00 | 0.00 | 23 | 1014.9 |
| 20260902093036 | 93 | 94 | 4.3 | 5.2 | 0.00 | 0.00 | 0.00 | 24 | 1014.9 |
| 20260902092537 | 93 | 99 | 4.3 | 6.1 | 0.00 | 0.00 | 0.00 | 25 | 1014.9 |
| 20260902092037 | 92 | 46 | 0.0 | 0.0 | 0.00 | 0.00 | 0.00 | 25 | 1014.9 |
| 20260902091536 | 93 | 121 | 1.7 | 1.7 | 0.00 | 0.00 | 0.00 | 25 | 1014.9 |
| 20260902091036 | 92 | 36 | 1.7 | 1.7 | 0.00 | 0.00 | 0.00 | 25 | 1014.9 |
| 20260902090537 | 92 | 68 | 2.6 | 2.6 | 0.00 | 0.00 | 0.00 | 26 | 1015.2 |
| 20260902090036 | 92 | 91 | 2.6 | 2.6 | 0.00 | 0.00 | 0.00 | 25 | 1014.9 |
| 20260902085537 | 93 | 111 | 3.5 | 4.3 | 0.00 | 0.00 | 0.00 | 25 | 1015.2 |
| 20260902085036 | 93 | 198 | 0.9 | 1.7 | 0.00 | 0.00 | 0.00 | 25 | 1015.2 |
| 20260902084536 | 92 | 93 | 1.7 | 1.7 | 0.00 | 0.00 | 0.00 | 24 | 1015.2 |
| 20260902084036 | 93 | 14 | 0.0 | 0.0 | 0.00 | 0.00 | 0.00 | 26 | 1015.2 |
| 20260902083536 | 92 | 50 | 0.0 | 0.9 | 0.00 | 0.00 | 0.00 | 26 | 1015.2 |
| 20260902083038 | 91 | 163 | 0.9 | 0.9 | 0.00 | 0.00 | 0.00 | 27 | 1015.2 |
| 20260902082537 | 92 | 84 | 1.7 | 2.6 | 0.00 | 0.00 | 0.00 | 27 | 1015.2 |
| 20260902082038 | 90 | 221 | 0.0 | 0.0 | 0.00 | 0.00 | 0.00 | 27 | 1015.6 |
| 20260902081537 | 91 | 66 | 2.6 | 1.7 | 0.00 | 0.00 | 0.00 | 28 | 1015.2 |
| 20260902081037 | 91 | 65 | 1.7 | 1.7 | 0.00 | 0.00 | 0.00 | 27 | 1015.2 |
| 20260902080537 | 90 | 96 | 0.9 | 0.9 | 0.00 | 0.00 | 0.00 | 29 | 1015.6 |
| 20260902080037 | 90 | 134 | 0.9 | 0.9 | 0.00 | 0.00 | 0.00 | 29 | 1015.6 |
| 20260902075537 | 91 | 80 | 2.6 | 1.7 | 0.00 | 0.00 | 0.00 | 30 | 1015.6 |
| 20260902075039 | 90 | 22 | 0.9 | 0.9 | 0.00 | 0.00 | 0.00 | 30 | 1015.2 |
| 20260902074537 | 89 | 75 | 1.7 | 1.7 | 0.00 | 0.00 | 0.00 | 31 | 1015.2 |
| 20260902074037 | 89 | 72 | 1.7 | 2.6 | 0.00 | 0.00 | 0.00 | 30 | 1015.6 |
| 20260902073536 | 89 | 110 | 2.6 | 4.3 | 0.00 | 0.00 | 0.00 | 30 | 1015.6 |
| 20260902073037 | 88 | 71 | 0.9 | 0.9 | 0.00 | 0.00 | 0.00 | 32 | 1015.6 |
| 20260902072537 | 88 | 62 | 2.6 | 5.2 | 0.00 | 0.00 | 0.00 | 30 | 1015.6 |
| 20260902072037 | 88 | 96 | 1.7 | 1.7 | 0.00 | 0.00 | 0.00 | 31 | 1015.6 |
| 20260902071537 | 88 | 63 | 4.3 | 5.2 | 0.00 | 0.00 | 0.00 | 32 | 1015.2 |
| 20260902071037 | 87 | 96 | 3.5 | 4.3 | 0.00 | 0.00 | 0.00 | 32 | 1015.2 |
| 20260902070537 | 87 | 92 | 2.6 | 2.6 | 0.00 | 0.00 | 0.00 | 34 | 1015.6 |
| 20260902070036 | 88 | 121 | 5.2 | 6.1 | 0.00 | 0.00 | 0.00 | 33 | 1015.6 |
| 20260902065538 | 88 | 30 | 0.9 | 0.9 | 0.00 | 0.00 | 0.00 | 32 | 1015.2 |
| 20260902065037 | 87 | 31 | 2.6 | 2.6 | 0.00 | 0.00 | 0.00 | 33 | 1015.2 |
| 20260902064536 | 87 | 78 | 1.7 | 1.7 | 0.00 | 0.00 | 0.00 | 33 | 1015.2 |
| 20260902064036 | 87 | 38 | 1.7 | 2.6 | 0.00 | 0.00 | 0.00 | 33 | 1015.2 |
| 20260902063537 | 86 | 57 | 2.6 | 2.6 | 0.00 | 0.00 | 0.00 | 34 | 1015.6 |
| 20260902063036 | 86 | 102 | 2.6 | 2.6 | 0.00 | 0.00 | 0.00 | 34 | 1015.6 |
| 20260902062536 | 86 | 57 | 1.7 | 1.7 | 0.00 | 0.00 | 0.00 | 34 | 1015.2 |
| 20260902062036 | 86 | 46 | 2.6 | 2.6 | 0.00 | 0.00 | 0.00 | 35 | 1015.2 |
| 20260902061538 | 86 | 89 | 2.6 | 2.6 | 0.00 | 0.00 | 0.00 | 34 | 1015.2 |
| 20260902061037 | 86 | 127 | 2.6 | 1.7 | 0.00 | 0.00 | 0.00 | 34 | 1015.2 |
| 20260902060536 | 86 | 25 | 0.9 | 0.9 | 0.00 | 0.00 | 0.00 | 33 | 1015.6 |
| 20260902060037 | 85 | 66 | 0.9 | 0.9 | 0.00 | 0.00 | 0.00 | 34 | 1015.6 |
| 20260902055537 | 84 | 67 | 1.7 | 1.7 | 0.00 | 0.00 | 0.00 | 34 | 1015.6 |
| 20260902055036 | 84 | 64 | 0.9 | 0.9 | 0.00 | 0.00 | 0.00 | 34 | 1015.6 |
| 20260902054537 | 84 | 92 | 0.9 | 0.9 | 0.00 | 0.00 | 0.00 | 33 | 1015.6 |
| 20260902054036 | 84 | 103 | 1.7 | 1.7 | 0.00 | 0.00 | 0.00 | 33 | 1015.6 |
| 20260902053536 | 84 | 94 | 2.6 | 2.6 | 0.00 | 0.00 | 0.00 | 34 | 1015.6 |
| 20260902053036 | 84 | 85 | 1.7 | 1.7 | 0.00 | 0.00 | 0.00 | 34 | 1015.6 |
| 20260902052536 | 84 | 88 | 3.5 | 4.3 | 0.00 | 0.00 | 0.00 | 33 | 1015.6 |
| 20260902052036 | 84 | 99 | 0.0 | 0.9 | 0.00 | 0.00 | 0.00 | 33 | 1015.6 |
| 20260902051536 | 84 | 51 | 1.7 | 1.7 | 0.00 | 0.00 | 0.00 | 32 | 1015.2 |
| 20260902051036 | 83 | 128 | 0.0 | 0.0 | 0.00 | 0.00 | 0.00 | 34 | 1015.2 |
| 20260902050537 | 84 | 109 | 1.7 | 1.7 | 0.00 | 0.00 | 0.00 | 34 | 1015.2 |
| 20260902050037 | 83 | 75 | 0.0 | 0.0 | 0.00 | 0.00 | 0.00 | 35 | 1015.2 |
| 20260902045537 | 84 | 124 | 0.0 | 0.0 | 0.00 | 0.00 | 0.00 | 33 | 1015.2 |
| 20260902045036 | 84 | 105 | 0.0 | 0.0 | 0.00 | 0.00 | 0.00 | 33 | 1015.2 |
| 20260902044538 | 84 | 54 | 0.0 | 0.0 | 0.00 | 0.00 | 0.00 | 32 | 1015.2 |
| 20260902044036 | 82 | 134 | 0.0 | 0.0 | 0.00 | 0.00 | 0.00 | 35 | 1015.2 |
| 20260902043536 | 82 | 121 | 0.0 | 0.0 | 0.00 | 0.00 | 0.00 | 35 | 1015.2 |
| 20260902043036 | 82 | 356 | 0.0 | 0.0 | 0.00 | 0.00 | 0.00 | 33 | 1015.2 |
| 20260902042537 | 81 | 355 | 0.0 | 0.0 | 0.00 | 0.00 | 0.00 | 36 | 1015.2 |
| 20260902042037 | 80 | 345 | 0.0 | 0.0 | 0.00 | 0.00 | 0.00 | 36 | 1014.9 |
| 20260902041538 | 80 | 318 | 0.0 | 0.0 | 0.00 | 0.00 | 0.00 | 37 | 1015.2 |
| 20260902041039 | 80 | 328 | 0.0 | 0.0 | 0.00 | 0.00 | 0.00 | 38 | 1015.2 |
| 20260902040537 | 80 | 355 | 0.0 | 0.0 | 0.00 | 0.00 | 0.00 | 39 | 1014.9 |
| 20260902040036 | 80 | 268 | 0.0 | 0.0 | 0.00 | 0.00 | 0.00 | 39 | 1015.2 |
| 20260902035536 | 79 | 339 | 0.0 | 0.0 | 0.00 | 0.00 | 0.00 | 42 | 1014.9 |
| 20260902035037 | 78 | 288 | 0.0 | 0.0 | 0.00 | 0.00 | 0.00 | 42 | 1014.9 |
| 20260902034536 | 78 | 257 | 0.0 | 0.0 | 0.00 | 0.00 | 0.00 | 43 | 1014.9 |
| 20260902034037 | 78 | 290 | 0.0 | 0.9 | 0.00 | 0.00 | 0.00 | 43 | 1014.9 |
| 20260902033539 | 77 | 273 | 2.6 | 2.6 | 0.00 | 0.00 | 0.00 | 44 | 1014.9 |
| 20260902033037 | 77 | 283 | 1.7 | 2.6 | 0.00 | 0.00 | 0.00 | 44 | 1014.9 |
| 20260902032536 | 77 | 277 | 0.9 | 0.9 | 0.00 | 0.00 | 0.00 | 44 | 1014.6 |
| 20260902032039 | 77 | 282 | 5.2 | 7.0 | 0.00 | 0.00 | 0.00 | 44 | 1014.6 |
| 20260902031538 | 77 | 280 | 0.9 | 1.7 | 0.00 | 0.00 | 0.00 | 44 | 1014.9 |
| 20260902031036 | 77 | 300 | 0.0 | 0.0 | 0.00 | 0.00 | 0.00 | 45 | 1014.6 |
| 20260902030536 | 77 | 320 | 4.3 | 5.2 | 0.00 | 0.00 | 0.00 | 45 | 1014.9 |
| 20260902030036 | 77 | 237 | 0.0 | 0.0 | 0.00 | 0.00 | 0.00 | 46 | 1014.9 |
| 20260902025538 | 77 | 241 | 0.0 | 0.0 | 0.00 | 0.00 | 0.00 | 46 | 1014.9 |
| 20260902025037 | 77 | 278 | 2.6 | 2.6 | 0.00 | 0.00 | 0.00 | 47 | 1014.6 |
| 20260902024536 | 77 | 285 | 0.0 | 0.0 | 0.00 | 0.00 | 0.00 | 47 | 1014.9 |
| 20260902024036 | 77 | 265 | 0.0 | 0.0 | 0.00 | 0.00 | 0.00 | 47 | 1014.6 |
| 20260902023536 | 77 | 287 | 0.9 | 1.7 | 0.00 | 0.00 | 0.00 | 46 | 1014.6 |
| 20260902023037 | 77 | 332 | 0.9 | 0.9 | 0.00 | 0.00 | 0.00 | 48 | 1014.6 |
| 20260902022536 | 77 | 296 | 1.7 | 0.9 | 0.00 | 0.00 | 0.00 | 48 | 1014.6 |
| 20260902022036 | 77 | 287 | 1.7 | 1.7 | 0.00 | 0.00 | 0.00 | 47 | 1014.6 |
| 20260902021536 | 77 | 300 | 0.9 | 0.9 | 0.00 | 0.00 | 0.00 | 48 | 1014.6 |
| 20260902021039 | 77 | 267 | 1.7 | 2.6 | 0.00 | 0.00 | 0.00 | 49 | 1014.6 |
| 20260902020537 | 77 | 360 | 0.0 | 0.0 | 0.00 | 0.00 | 0.00 | 49 | 1014.6 |
| 20260902020037 | 77 | 287 | 0.9 | 0.9 | 0.00 | 0.00 | 0.00 | 49 | 1014.6 |
| 20260902015537 | 77 | 264 | 3.5 | 4.3 | 0.00 | 0.00 | 0.00 | 50 | 1014.6 |
| 20260902015037 | 77 | 281 | 0.0 | 0.0 | 0.00 | 0.00 | 0.00 | 50 | 1014.6 |
| 20260902014536 | 77 | 58 | 1.7 | 1.7 | 0.00 | 0.00 | 0.00 | 50 | 1014.6 |
| 20260902014036 | 77 | 304 | 0.0 | 0.0 | 0.00 | 0.00 | 0.00 | 51 | 1014.6 |
| 20260902013536 | 77 | 286 | 1.7 | 2.6 | 0.00 | 0.00 | 0.00 | 50 | 1014.6 |
| 20260902013037 | 77 | 311 | 0.9 | 1.7 | 0.00 | 0.00 | 0.00 | 50 | 1014.6 |
| 20260902012536 | 77 | 287 | 2.6 | 2.6 | 0.00 | 0.00 | 0.00 | 50 | 1014.6 |
| 20260902012036 | 77 | 258 | 0.0 | 0.0 | 0.00 | 0.00 | 0.00 | 51 | 1014.6 |
| 20260902011537 | 77 | 275 | 0.0 | 0.0 | 0.00 | 0.00 | 0.00 | 51 | 1014.6 |
| 20260902011036 | 77 | 278 | 0.0 | 0.9 | 0.00 | 0.00 | 0.00 | 51 | 1014.6 |
| 20260902010536 | 77 | 281 | 0.0 | 0.0 | 0.00 | 0.00 | 0.00 | 51 | 1014.9 |
| 20260902010036 | 77 | 284 | 0.9 | 0.9 | 0.00 | 0.00 | 0.00 | 52 | 1014.6 |
| 20260902005537 | 77 | 258 | 0.9 | 1.7 | 0.00 | 0.00 | 0.00 | 51 | 1014.6 |
| 20260902005037 | 77 | 264 | 0.9 | 0.9 | 0.00 | 0.00 | 0.00 | 51 | 1014.6 |
| 20260902004536 | 77 | 295 | 0.9 | 0.0 | 0.00 | 0.00 | 0.00 | 52 | 1014.6 |
| 20260902004040 | 77 | 266 | 1.7 | 1.7 | 0.00 | 0.00 | 0.00 | 51 | 1014.6 |
| 20260902003536 | 77 | 277 | 0.9 | 0.9 | 0.00 | 0.00 | 0.00 | 51 | 1014.6 |
| 20260902003037 | 77 | 249 | 0.9 | 1.7 | 0.00 | 0.00 | 0.00 | 51 | 1014.6 |
| 20260902002537 | 77 | 284 | 2.6 | 1.7 | 0.00 | 0.00 | 0.00 | 51 | 1014.6 |
| 20260902002037 | 77 | 249 | 0.9 | 0.9 | 0.00 | 0.00 | 0.00 | 50 | 1014.6 |
| 20260902001536 | 77 | 257 | 0.9 | 0.9 | 0.00 | 0.00 | 0.00 | 50 | 1014.6 |
| 20260902001036 | 77 | 240 | 1.7 | 1.7 | 0.00 | 0.00 | 0.00 | 50 | 1014.9 |
| 20260902000538 | 77 | 269 | 1.7 | 1.7 | 0.00 | 0.00 | 0.00 | 50 | 1014.6 |
| 20260902000037 | 77 | 270 | 1.7 | 1.7 | 0.00 | 0.00 | 0.00 | 50 | 1014.9 |
| 20260901235536 | 78 | 228 | 0.0 | 0.0 | 0.00 | 0.00 | 0.00 | 50 | 1014.9 |
| 20260901235037 | 78 | 234 | 1.7 | 1.7 | 0.00 | 0.00 | 0.00 | 49 | 1014.6 |
| 20260901234537 | 78 | 269 | 0.0 | 0.0 | 0.00 | 0.00 | 0.00 | 48 | 1014.9 |
| 20260901234037 | 78 | 57 | 0.0 | 0.0 | 0.00 | 0.00 | 0.00 | 48 | 1014.2 |
| 20260901233536 | 78 | 91 | 0.0 | 0.0 | 0.00 | 0.00 | 0.00 | 49 | 1014.2 |
| 20260901233036 | 78 | 92 | 0.0 | 0.0 | 0.00 | 0.00 | 0.00 | 49 | 1014.6 |
| 20260901232536 | 78 | 92 | 0.0 | 0.0 | 0.00 | 0.00 | 0.00 | 49 | 1014.6 |
| 20260901232036 | 77 | 92 | 0.0 | 0.0 | 0.00 | 0.00 | 0.00 | 49 | 1014.2 |
| 20260901231536 | 77 | 91 | 0.0 | 0.0 | 0.00 | 0.00 | 0.00 | 49 | 1014.2 |
| 20260901231036 | 78 | 92 | 0.0 | 0.0 | 0.00 | 0.00 | 0.00 | 49 | 1014.2 |
| 20260901230539 | 78 | 92 | 0.0 | 0.0 | 0.00 | 0.00 | 0.00 | 48 | 1014.2 |
| 20260901230038 | 78 | 92 | 0.0 | 0.0 | 0.00 | 0.00 | 0.00 | 49 | 1014.2 |
| 20260901225538 | 78 | 91 | 0.0 | 0.0 | 0.00 | 0.00 | 0.00 | 48 | 1014.2 |
| 20260901225036 | 78 | 45 | 0.0 | 0.0 | 0.00 | 0.00 | 0.00 | 46 | 1014.6 |
| 20260901224537 | 78 | 41 | 0.0 | 0.0 | 0.00 | 0.00 | 0.00 | 46 | 1014.2 |